Location: Cran-Gévrier
(45.9039°N, 6.1012°E)
Time: 10:03:08
(UTC+00:00)

CSL-04 Debris - Pass Details

Date: 09 February 2023
Orbit: 825 x 846 km, 98.8° (Epoch: 20 March)

Event Time Altitude Azimuth Distance (km) Brightness Sun altitude
Exits shadow 18:42:29 29° 124° (SE) 1,467 5.0 -19.5°
Maximum altitude 18:44:50 48° 68° (ENE) 1,074 4.3 -19.9°
Drops below altitude 10° 18:50:00 10° 356° (N) 2,440 6.6 -20.8°
Sets 18:52:25 0° 351° (N) 3,377 7.5 -21.2°
